Current weather by "City, St" or "zip code"  
 

Current Conditions: Jasper, Jasper County-Bell Field Airport, TX

Fair


77.0 F

Last Updated on Sep 18 2020, 9:55 am CDT
Humidity: 69%
Wind Speed: NE 8.1 mph
Barometer 30.05 in
Dewpoint: 65.8 F
Visibility: 10.00 mi
Precip: --
Heat Index: NA
Wind Chill: NA
Current conditions at:

Jasper, Jasper County-Bell Field Airport, TX (KJAS)

Lat: 30.88556 Lon: 94.03472

Local Radar Image active severe weather and emergency alerts image image weather storm and storm spotter reports image weather observation monitoring service image
Local
Radar
Active
Alerts
Storm Reports Obs
Monitoring

Sign-up For Email & Text Message Weather Alert Notification Services



Advertise Here

Observation History for Jasper, Jasper County-Bell Field Airport, TX


Time Wind
(mph)
Vis
(mi)
Weather Precip (in) Temperature (F) Relative
Humidity
Wind
Chill
(F)
Heat
Index
(F)
Pressure
Air Dwpt altimeter
(in)
sea level
(mb)
Rmks
9:55 am CDT NE 8.1 10.00 Fair -- 77.0 65.8 69% NA NA 30.05 M
8:55 am CDT NE 6.9 10.00 Fair -- 73.0 66.2 79% NA NA 30.03 M
7:55 am CDT N 3.5 10.00 Fair -- 69.0 65.8 91% NA NA 30.02 M
6:55 am CDT N 5.8 10.00 Fair -- 69.0 66.6 93% NA NA 30.00 M
5:55 am CDT NE 3.5 10.00 Fair -- 72.0 67.8 88% NA NA 29.99 M
4:55 am CDT N 6.9 10.00 Fair -- 72.0 67.8 87% NA NA 29.98 M
3:55 am CDT NE 5.8 10.00 Fair -- 75.0 68.4 80% NA NA 29.98 M
2:55 am CDT NE 5.8 10.00 Fair -- 76.0 71.1 84% NA NA 29.98 M
1:55 am CDT NE 4.6 10.00 Fair -- 77.0 72.5 86% NA NA 29.98 M
12:55 am CDT NE 4.6 10.00 Fair -- 77.0 73.0 88% NA NA 29.99 M
11:55 pm CDT N 4.6 10.00 Fair -- 78.0 73.2 85% NA NA 29.99 M
10:55 pm CDT N 3.5 10.00 Fair -- 77.0 73.6 90% NA NA 29.99 M
9:55 pm CDT N 5.8 10.00 Fair -- 76.0 73.4 92% NA NA 29.97 M
8:55 pm CDT N 0.0 10.00 Fair -- 77.0 73.6 89% NA NA 29.97 M
7:55 pm CDT N 0.0 10.00 Fair -- 81.0 72.5 76% NA 86 29.94 M
6:55 pm CDT N 6.9 10.00 Fair -- 84.0 71.6 66% NA 89 29.93 M
5:55 pm CDT N 9.2 10.00 Fair -- 86.0 71.4 62% NA 92 29.93 M
4:55 pm CDT NE 6.9 10.00 Fair -- 86.0 72.1 64% NA 93 29.93 M
3:55 pm CDT NE 8.1 10.00 Fair -- 86.0 71.4 62% NA 92 29.93 M
2:55 pm CDT NE 9.2 10.00 Partly Cloudy -- 86.0 72.9 65% NA 93 29.95 M
1:55 pm CDT N 8.1 10.00 Fair -- 85.0 72.7 66% NA 91 29.96 M
12:55 pm CDT NE 5.8 10.00 Mostly Cloudy -- 84.0 73.2 69% NA 90 29.98 M
11:55 am CDT N 10.4 10.00 Partly Cloudy -- 82.0 73.0 74% NA 87 29.99 M
10:55 am CDT NE 5.8 10.00 Partly Cloudy -- 81.0 72.7 76% NA 86 29.99 M

Regional Weather Observation


Lufkin, Angelina County Airport, TX (KLFK)

Fair
77.0 F

Nacogdoches, A L Mangham Jr. Regional Airport, TX (KOCH)

Fair
77.0 F

Fort Polk, Polk AAF Ft Polk, LA (KPOE)

A Few Clouds
73.0 F

Ft. Polk - Peason Ridge, LA (KAQV)

A Few Clouds
82.0 F

De Ridder, Beauregard Parish Airport, LA (KDRI)

Fair
73.0 F

Ft. Polk/Self Strip, LA (KDNK)

Light Rain
66.0 F